Bookmark and Share
Track history (hours):
 

Hakuhomaru

Last reported at 2014-Apr-17 03:33 UTC. Time now 2014-Apr-17 03:58 UTC.
Position N 34°41' E 135°12'.

Length 38 m; draft 3.3 m.

Type: Tug. MMSI: 431401584.

NotesDate/timePositionNaut miles runAvg speedWind from/ knotsBaromVisibWave heightAir tempDewpointWater temp
2014-Apr-17 03:33N 34°41' E 135°12'0 0.0
2014-Apr-17 02:33N 34°41' E 135°12'0 0.0
2014-Apr-17 01:33N 34°41' E 135°12'2 2.4
2014-Apr-17 00:33N 34°42' E 135°15'2 2.4
2014-Apr-16 23:33N 34°41' E 135°12'0 0.0
2014-Apr-16 22:33N 34°41' E 135°12'0 0.0
2014-Apr-16 21:33N 34°41' E 135°12'0 0.0
2014-Apr-16 09:29N 34°41' E 135°12'2 2.6
2014-Apr-16 08:33N 34°39' E 135°15'1 0.6
2014-Apr-16 07:33N 34°39' E 135°14'3 2.6
2014-Apr-16 06:33N 34°41' E 135°12'0 0.0
2014-Apr-16 05:33N 34°41' E 135°12'0 0.0
2014-Apr-16 04:33N 34°41' E 135°12'0 0.0
2014-Apr-16 03:33N 34°41' E 135°12'0 0.0
2014-Apr-16 02:33N 34°41' E 135°12'0 0.0
2014-Apr-16 01:33N 34°41' E 135°12'0 0.0
2014-Apr-16 00:33N 34°41' E 135°12'4 3.9
2014-Apr-15 23:34N 34°41' E 135°17'1 0.5
2014-Apr-15 22:33N 34°41' E 135°18'4 4.3
2014-Apr-15 21:33N 34°41' E 135°12'0 0.0
2014-Apr-15 01:34N 34°41' E 135°12'1 0.2
2014-Apr-14 22:34N 34°41' E 135°13'2 2.0
2014-Apr-14 21:33N 34°42' E 135°15'2 1.8
2014-Apr-14 20:34N 34°40' E 135°15'0 0.4
2014-Apr-14 19:34N 34°40' E 135°15'2 2.0
2014-Apr-14 18:33N 34°41' E 135°12'0 0.0
2014-Apr-14 17:33N 34°41' E 135°12'0 0.0
2014-Apr-14 16:33N 34°41' E 135°12'0 0.0
2014-Apr-14 15:33N 34°41' E 135°12'2 2.3
2014-Apr-14 14:33N 34°39' E 135°14'1 1.5
2014-Apr-14 13:34N 34°40' E 135°15'2 0.9
2014-Apr-14 11:33N 34°42' E 135°14'1 0.5
2014-Apr-14 10:33N 34°41' E 135°14'2 2.0
2014-Apr-14 09:34N 34°42' E 135°17'2 1.6
2014-Apr-14 08:33N 34°41' E 135°18'1 1.4
2014-Apr-14 07:33N 34°42' E 135°17'0 0.0
2014-Apr-14 06:33N 34°42' E 135°17'2 2.1
2014-Apr-14 05:33N 34°40' E 135°15'2 0.1
2014-Apr-13 13:27N 34°41' E 135°12'0 0.4
2014-Apr-13 12:33N 34°41' E 135°12'0 0.3
2014-Apr-13 11:33N 34°41' E 135°12'0 0.0
2014-Apr-13 10:33N 34°41' E 135°12'0 0.0
2014-Apr-13 09:33N 34°41' E 135°12'0 0.2
2014-Apr-13 08:33N 34°40' E 135°12'4 4.4
2014-Apr-13 07:33N 34°41' E 135°17'4 4.3
2014-Apr-13 06:33N 34°41' E 135°12'0 0.0
2014-Apr-13 05:33N 34°41' E 135°12'0 0.2
2014-Apr-13 04:33N 34°41' E 135°12'2 2.3
2014-Apr-13 03:33N 34°40' E 135°15'0 0.0
2014-Apr-13 02:33N 34°40' E 135°15'0 0.0
2014-Apr-13 01:33N 34°40' E 135°15'0 0.0
2014-Apr-13 00:33N 34°40' E 135°15'2 1.7
2014-Apr-12 23:33N 34°42' E 135°15'0 0.3
2014-Apr-12 22:34N 34°41' E 135°15'1 0.9
2014-Apr-12 21:33N 34°41' E 135°14'2 1.6
2014-Apr-12 20:33N 34°41' E 135°12'0 0.0
2014-Apr-12 14:33N 34°41' E 135°12'2 2.3
2014-Apr-12 13:33N 34°39' E 135°15'1 1.3
2014-Apr-12 12:32N 34°40' E 135°13'0 0.0
2014-Apr-12 11:33N 34°40' E 135°13'0 0.0
2014-Apr-12 10:33N 34°40' E 135°13'1 1.2
2014-Apr-12 09:33N 34°41' E 135°13'0 0.4
2014-Apr-12 08:33N 34°41' E 135°12'0 0.0
2014-Apr-12 07:33N 34°41' E 135°12'0 0.0
2014-Apr-12 06:33N 34°41' E 135°12'4 3.9
2014-Apr-12 05:33N 34°41' E 135°17'4 4.0
2014-Apr-12 04:33N 34°41' E 135°12'0 0.0
2014-Apr-12 03:33N 34°41' E 135°12'0 0.0
2014-Apr-12 02:33N 34°41' E 135°12'0 0.0
2014-Apr-12 01:33N 34°41' E 135°12'0 0.0
2014-Apr-12 00:33N 34°41' E 135°12'0 0.0
2014-Apr-11 10:33N 34°41' E 135°12'5 4.8
2014-Apr-11 09:33N 34°42' E 135°18'2 1.6
2014-Apr-11 08:33N 34°42' E 135°16'1 1.4
2014-Apr-11 07:33N 34°41' E 135°17'1 0.7
2014-Apr-11 06:33N 34°41' E 135°17'4 3.9
2014-Apr-11 05:33N 34°41' E 135°12'0 0.1
2014-Apr-11 04:33N 34°41' E 135°12'2 1.9
2014-Apr-11 03:33N 34°40' E 135°14'0 0.5
2014-Apr-11 02:33N 34°40' E 135°15'0 0.2
2014-Apr-11 01:33N 34°40' E 135°15'0 0.0
2014-Apr-11 00:33N 34°40' E 135°15'2 2.3
2014-Apr-10 23:33N 34°41' E 135°17'2 1.6
2014-Apr-10 22:33N 34°40' E 135°18'3 2.9
2014-Apr-10 21:33N 34°41' E 135°15'2 1.9
2014-Apr-10 20:33N 34°41' E 135°12'0 0.0
2014-Apr-09 23:33N 34°41' E 135°12'5 4.8
2014-Apr-09 22:33N 34°42' E 135°18'2 1.6
2014-Apr-09 21:33N 34°41' E 135°17'0 0.0
2014-Apr-09 20:33N 34°41' E 135°17'0 0.0
2014-Apr-09 19:33N 34°41' E 135°17'0 0.0
2014-Apr-09 18:34N 34°41' E 135°17'0 0.0
2014-Apr-09 17:33N 34°41' E 135°17'0 0.0
2014-Apr-09 16:33N 34°41' E 135°17'0 0.0
2014-Apr-09 15:33N 34°41' E 135°17'1 0.8
2014-Apr-09 14:33N 34°41' E 135°16'1 0.9
2014-Apr-09 13:33N 34°40' E 135°15'0 0.0
2014-Apr-09 12:33N 34°40' E 135°15'0 0.3
2014-Apr-09 11:33N 34°40' E 135°15'2 2.2
2014-Apr-09 10:33N 34°41' E 135°12'0 0.0
2014-Apr-09 09:33N 34°41' E 135°12'0 0.0
2014-Apr-08 20:09N 34°41' E 135°12'2 4.1
2014-Apr-08 19:33N 34°40' E 135°15'1 0.5
2014-Apr-08 18:33N 34°41' E 135°16'3 3.0
2014-Apr-08 17:33N 34°41' E 135°12'0 0.0
2014-Apr-08 16:33N 34°41' E 135°12'0 0.0
2014-Apr-08 15:33N 34°41' E 135°12'0 0.0
2014-Apr-08 14:33N 34°41' E 135°12'0 0.0
2014-Apr-08 13:33N 34°41' E 135°12'0 0.0
2014-Apr-08 12:33N 34°41' E 135°12'1 1.1
2014-Apr-08 11:33N 34°41' E 135°14'1 0.5
2014-Apr-08 10:33N 34°40' E 135°13'0 0.0
2014-Apr-08 09:33N 34°40' E 135°13'0 0.4
2014-Apr-08 08:33N 34°40' E 135°14'3 3.0
2014-Apr-08 07:33N 34°41' E 135°17'4 4.1
2014-Apr-08 06:33N 34°41' E 135°12'0 0.0
2014-Apr-08 05:33N 34°41' E 135°12'0 0.0
2014-Apr-08 04:33N 34°41' E 135°12'0 0.0
2014-Apr-08 03:33N 34°41' E 135°12'0 0.0
2014-Apr-08 02:33N 34°41' E 135°12'0 0.0
2014-Apr-08 01:33N 34°41' E 135°12'0 0.0
2014-Apr-08 00:33N 34°41' E 135°12'0 0.1
2014-Apr-07 23:33N 34°41' E 135°12'4 4.3
2014-Apr-07 22:33N 34°41' E 135°17'2 2.3
2014-Apr-07 21:32N 34°41' E 135°14'2 1.9
2014-Apr-07 20:33N 34°41' E 135°12'0 0.0
2014-Apr-07 06:33N 34°41' E 135°12'0 0.0
2014-Apr-07 05:33N 34°41' E 135°12'0 0.0
2014-Apr-07 04:33N 34°41' E 135°12'0 0.0
2014-Apr-07 03:33N 34°41' E 135°12'  

Dump ship's entire track history

sailing weather and tide predictions

Hakuhomaru — JJ4011 — position and weather